[[{"header":{"parameterUnit":"m.s-1","parameterCategory":2,"la1":30.2991,"la2":30.254,"lo1":-89.0895,"lo2":-89.0444,"dy":0.0017,"dx":0.0017,"nx":28,"ny":28,"refTime":"2024-03-08T09:00:00:Z","depth":"0","parameterNumber":2,"parameterNumberName":"U-component_of_CURRENTS"},"data":[0,0,0,0,0,0,0,0,0,0,0,0,0,0,0,0,0,0,0,0,0,0,0,0,0,0,0,0,0,0,0,0,0,0,0,0,0,0,0,0,0,0,0,0,0,0,0,0,0,0,0,0,0,0,0,0,0,0,0.3346,0.3346,0,0.3353,0.3353,0.3353,0.3328,0.3327,0.3326,0.3326,0.3293,0.3292,0.3292,0,0,0,0,0,0,0,0,0,0,0,0,0,0.3331,0.3331,0.3346,0.3346,0.3346,0.3353,0.3353,0.3353,0.3328,0.3327,0.3326,0.3326,0.3293,0.3292,0.3292,0,0,0,0,0,0,0,0,0,0,0,0,0,0.3336,0.3331,0.3346,0.3336,0.3336,0.3353,0.3353,0.3353,0.3328,0.3327,0.3326,0.3325,0.3293,0.3293,0.3292,0.3305,0,0,0.329,0.329,0,0,0,0,0,0,0,0,0.3335,0.3336,0.3337,0.3337,0.3336,0.3341,0.3336,0.3336,0.3328,0.3328,0.3326,0.3325,0.3307,0.3305,0.3306,0.3303,0.3302,0.329,0.329,0.329,0.3289,0,0,0,0,0,0,0,0.3335,0.3335,0.3346,0.3338,0.3337,0.3339,0.3338,0.3336,0.332,0.3328,0.3327,0.3332,0.3306,0.3307,0.3305,0.3302,0.329,0.329,0.3289,0.3289,0.3343,0.3345,0,0,0,0,0,0,0.3339,0.3335,0.3346,0.3347,0.3336,0.334,0.3339,0.3338,0.3321,0.3318,0.3333,0.3331,0.3308,0.3306,0.3304,0.3336,0.329,0.3289,0.3289,0.3341,0.3344,0.3346,0,0,0,0,0,0,0.3338,0.3339,0.3346,0.3343,0.3344,0.3341,0.334,0.3339,0.3343,0.3325,0.3321,0.3338,0.3307,0.3304,0.3313,0.3334,0.3289,0.3288,0.3339,0.3342,0.3345,0.339,0,0,0,0,0,0,0.3338,0.3339,0.3343,0.3343,0.3345,0.3359,0.3341,0.334,0.3348,0.3345,0.3329,0.3324,0.3306,0.3314,0.3312,0.3332,0.3288,0.3337,0.3341,0.3344,0.3386,0.3394,0.34,0,0,0,0,0,0.3337,0.3341,0.3343,0.3344,0.3349,0.3359,0.336,0.3354,0.3349,0.3353,0.3349,0.3325,0.3334,0.3315,0.3313,0.3333,0.3336,0.334,0.3343,0.3383,0.3392,0.34,0,0,0,0,0,0,0.3333,0.334,0.3341,0.3346,0.3356,0.3356,0.336,0.3362,0.3363,0.3361,0.3342,0.3339,0.3361,0.3345,0.3324,0.3362,0.3333,0.3337,0.3364,0.3373,0.338,0.3406,0.3287,0,0,0,0,0,0.3337,0.3343,0.3351,0.3357,0.3361,0.3365,0.337,0.337,0.3372,0.3371,0.3363,0.3363,0.3377,0.3371,0.3379,0.339,0.3397,0.3406,0.3413,0.3418,0.3441,0.3469,0.348,0.3359,0.3359,0.3358,0,0,0.3337,0.3343,0.3346,0.3358,0.3362,0.3379,0.3365,0.3377,0.34,0.3369,0.3391,0.339,0.339,0.341,0.3418,0.3394,0.3458,0.3424,0.3428,0.3448,0.3474,0.3486,0.3497,0.3361,0.3361,0.336,0,0,0.3341,0.3346,0.3353,0.3368,0.3383,0.3392,0.3399,0.3408,0.3418,0.3437,0.3436,0.3454,0.345,0.3466,0.3472,0.3525,0.3503,0.352,0.3562,0.3588,0.3598,0.3607,0.363,0.364,0.3511,0.3511,0.3511,0,0.3344,0.3349,0.3358,0.3374,0.3387,0.3401,0.3416,0.344,0.3454,0.3468,0.3449,0.3486,0.3485,0.3531,0.3553,0.3542,0.3548,0.3523,0.3597,0.3606,0.3614,0.3635,0.3646,0.3514,0.3514,0.3513,0.3513,0,0.3353,0.3364,0.337,0.3397,0.3417,0.3431,0.3466,0.3492,0.3502,0.3517,0.356,0.3565,0.3584,0.3591,0.3587,0.3652,0.3635,0.3609,0.3571,0.3629,0.3647,0.3658,0.3518,0.3517,0.3516,0.3515,0,0,0.3334,0.3368,0.337,0.3379,0.3428,0.3437,0.3498,0.3539,0.3567,0.3593,0.3628,0.3673,0.3672,0.3684,0.3685,0.3713,0.3779,0.3689,0.3689,0.3705,0.3837,0.3791,0.3798,0.3756,0.3758,0.376,0.3824,0,0.3333,0.3357,0.3382,0.3409,0.3421,0.3465,0.3513,0.3562,0.3594,0.3635,0.3675,0.3705,0.3709,0.3712,0.3753,0.3783,0.3811,0.3765,0.3785,0.3786,0.3733,0.381,0.3692,0.3736,0.3834,0.3836,0.3837,0,0.3324,0.3344,0.3364,0.3403,0.3411,0.3437,0.35,0.3549,0.3633,0.3653,0.3709,0.3735,0.382,0.3789,0.3886,0.3853,0.386,0.3871,0.3872,0.3826,0.3761,0.3696,0.3752,0.3673,0.3853,0.3852,0.3851,0,0.3284,0.3324,0.3332,0.3349,0.3406,0.3426,0.3466,0.3547,0.3603,0.3674,0.3725,0.379,0.3856,0.3881,0.394,0.3908,0.4028,0.3973,0.3938,0.3934,0.3839,0.3823,0.3817,0.4027,0.4027,0.4027,0.4027,0,0.326,0.3264,0.3309,0.3313,0.3335,0.3391,0.3435,0.3484,0.3586,0.3648,0.3736,0.3806,0.3887,0.397,0.3968,0.4014,0.4054,0.3978,0.396,0.3851,0.3836,0.3766,0.3727,0.4029,0.4029,0.4028,0.4028,0,0.3202,0.3232,0.3243,0.3294,0.3311,0.3328,0.3428,0.346,0.3577,0.3671,0.3706,0.3865,0.3962,0.4036,0.4093,0.4072,0.3975,0.4075,0.3948,0.3914,0.3771,0.3738,0.3565,0.3472,0.4036,0.4035,0.4035,0,0.3169,0.3168,0.3215,0.3219,0.3234,0.3283,0.3313,0.3429,0.3483,0.369,0.3728,0.3895,0.3968,0.4084,0.4069,0.4071,0.3958,0.3953,0.3868,0.3777,0.3729,0.3551,0.3473,0.376,0.3757,0.3755,0.3754,0,0.3109,0.3123,0.3132,0.315,0.3165,0.3198,0.326,0.3307,0.3447,0.3562,0.3685,0.3771,0.3928,0.3906,0.3964,0.3938,0.3768,0.3906,0.3845,0.3556,0.333,0.3225,0.3706,0.3734,0.3736,0.3737,0.3738,0.3739,0.3055,0.3045,0.3057,0.3054,0.3074,0.3074,0.3064,0.3155,0.3238,0.3357,0.353,0.3615,0.3749,0.3816,0.3765,0.3662,0.362,0.3559,0.3543,0.3383,0.3239,0.3683,0.3665,0.3667,0.3668,0.3669,0.367,0,0.2967,0.2958,0.2959,0.294,0.2903,0.2959,0.2986,0.2957,0.2986,0.3151,0.3255,0.3399,0.3416,0.3478,0.3468,0.334,0.3155,0.3251,0.2991,0.2946,0.3386,0.3323,0.319,0.319,0.319,0.319,0.319,0.319,0.292,0.2872,0.2861,0.2762,0.2744,0.2659,0.2637,0.263,0.27,0.2772,0.2861,0.2994,0.3217,0.3282,0.3176,0.3093,0.287,0.2714,0.271,0.3062,0.3089,0.3114,0.3047,0.2857,0.2857,0.2142,0.2137,0.2133]},{"header":{"parameterUnit":"m.s-1","parameterCategory":2,"la1":30.2991,"la2":30.254,"lo1":-89.0895,"lo2":-89.0444,"dy":0.0017,"dx":0.0017,"nx":28,"ny":28,"refTime":"2024-03-08T09:00:00:Z","depth":"0","parameterNumber":3,"parameterNumberName":"V-component_of_CURRENTS"},"data":[0,0,0,0,0,0,0,0,0,0,0,0,0,0,0,0,0,0,0,0,0,0,0,0,0,0,0,0,0,0,0,0,0,0,0,0,0,0,0,0,0,0,0,0,0,0,0,0,0,0,0,0,0,0,0,0,0,0,0.0393,0.0393,0,0.0351,0.035,0.0349,0.0316,0.0315,0.0315,0.0315,0.0243,0.0241,0.024,0,0,0,0,0,0,0,0,0,0,0,0,0,0.0382,0.0383,0.0393,0.0393,0.0392,0.0351,0.035,0.0349,0.0316,0.0315,0.0315,0.0315,0.0244,0.0242,0.024,0,0,0,0,0,0,0,0,0,0,0,0,0,0.0367,0.0383,0.0393,0.0372,0.037,0.0351,0.035,0.0349,0.0316,0.0315,0.0315,0.0315,0.0244,0.0242,0.0239,0.0228,0,0,0.0231,0.023,0,0,0,0,0,0,0,0,0.0368,0.0367,0.0375,0.0373,0.0371,0.034,0.032,0.0308,0.0316,0.0334,0.0315,0.0315,0.0274,0.0269,0.0259,0.0225,0.0222,0.0231,0.0229,0.0228,0.0228,0,0,0,0,0,0,0,0.0369,0.0368,0.0374,0.0375,0.0372,0.0343,0.0341,0.0317,0.0304,0.0333,0.033,0.0329,0.0272,0.0262,0.0257,0.0221,0.0231,0.0229,0.0227,0.0226,0.0182,0.0182,0,0,0,0,0,0,0.0382,0.037,0.0376,0.0373,0.0371,0.0344,0.0341,0.0348,0.0305,0.0299,0.0329,0.0327,0.0267,0.0261,0.0255,0.0259,0.0228,0.0226,0.0224,0.0182,0.0182,0.0182,0,0,0,0,0,0,0.0382,0.0383,0.0377,0.0371,0.0369,0.0345,0.0353,0.0348,0.0342,0.0303,0.0296,0.0329,0.0266,0.0258,0.0245,0.0256,0.0225,0.0222,0.0181,0.0182,0.0182,0.0255,0,0,0,0,0,0,0.0382,0.0383,0.0391,0.0373,0.037,0.0378,0.0353,0.0347,0.0342,0.0339,0.03,0.0293,0.0265,0.025,0.0243,0.0251,0.022,0.0181,0.0181,0.0182,0.0253,0.0259,0.0264,0,0,0,0,0,0.0382,0.0399,0.0392,0.0393,0.0382,0.0379,0.0375,0.0355,0.0342,0.0347,0.0322,0.0295,0.0249,0.0248,0.024,0.0248,0.018,0.0181,0.0182,0.025,0.0257,0.0263,0,0,0,0,0,0,0.0396,0.0397,0.0389,0.0405,0.0397,0.0374,0.0375,0.0362,0.0345,0.034,0.0302,0.0294,0.0284,0.0256,0.0256,0.0237,0.0209,0.0208,0.0263,0.027,0.0275,0.03,0.0218,0,0,0,0,0,0.0405,0.0419,0.041,0.0421,0.042,0.0398,0.0393,0.0381,0.0364,0.0356,0.0331,0.0301,0.028,0.0269,0.0244,0.0236,0.0208,0.0234,0.024,0.0245,0.0259,0.0222,0.0225,0.0185,0.0185,0.0185,0,0,0.0412,0.0414,0.0421,0.0425,0.0414,0.0426,0.0394,0.0393,0.0405,0.035,0.0355,0.0319,0.0282,0.0274,0.0266,0.0254,0.0242,0.0246,0.0251,0.0262,0.0223,0.0227,0.023,0.0186,0.0186,0.0186,0,0,0.044,0.0438,0.0461,0.0461,0.0456,0.0445,0.045,0.0434,0.0429,0.0426,0.0391,0.0368,0.0333,0.0313,0.0297,0.0318,0.0271,0.0303,0.0353,0.0317,0.032,0.0322,0.0295,0.0294,0.0307,0.0308,0.0308,0,0.0448,0.0481,0.0465,0.0487,0.0497,0.0461,0.0489,0.0479,0.0461,0.0464,0.0438,0.0392,0.0355,0.0351,0.0356,0.0332,0.0304,0.0333,0.0325,0.0327,0.0328,0.0299,0.0297,0.0311,0.0311,0.031,0.031,0,0.0497,0.0521,0.0534,0.0555,0.0559,0.0576,0.0565,0.0571,0.0554,0.0535,0.0524,0.0472,0.0447,0.0426,0.0397,0.0391,0.0367,0.0336,0.0312,0.0337,0.0304,0.0301,0.0316,0.0315,0.0314,0.0313,0,0,0.0525,0.0564,0.0569,0.0598,0.0601,0.0615,0.0638,0.0651,0.0673,0.063,0.0652,0.0594,0.0554,0.0533,0.0487,0.0453,0.0432,0.0404,0.0401,0.0385,0.0357,0.0339,0.0334,0.0396,0.0396,0.0396,0.0332,0,0.0571,0.0639,0.064,0.0699,0.0735,0.0722,0.0754,0.0755,0.0738,0.0745,0.0683,0.0669,0.0598,0.0585,0.0542,0.0464,0.0427,0.0453,0.0329,0.0326,0.0313,0.0331,0.0369,0.0315,0.0329,0.0328,0.0328,0,0.0622,0.0666,0.0739,0.0798,0.0812,0.0835,0.0882,0.0905,0.0895,0.0878,0.084,0.0785,0.0738,0.0668,0.0548,0.0567,0.0472,0.0402,0.0397,0.0355,0.0303,0.029,0.0309,0.0177,0.0323,0.0323,0.0324,0,0.0668,0.0735,0.0801,0.0819,0.0875,0.0907,0.0933,0.0943,0.0986,0.0955,0.0973,0.0882,0.0862,0.0729,0.0579,0.0562,0.0443,0.0398,0.0294,0.0291,0.0288,0.0286,0.0173,0.0311,0.0311,0.0311,0.0311,0,0.0723,0.0775,0.0829,0.0866,0.0959,0.0965,0.1048,0.1055,0.1084,0.1147,0.1044,0.1071,0.0876,0.0786,0.0621,0.0459,0.0471,0.0313,0.0276,0.0315,0.0315,0.0171,0.0096,0.0308,0.0309,0.0309,0.031,0,0.0761,0.0796,0.088,0.0952,0.0984,0.1046,0.1142,0.12,0.1208,0.129,0.1289,0.1221,0.1101,0.0901,0.0692,0.0537,0.0289,0.0295,0.0357,0.0329,0.0108,0.0037,-0.0108,-0.0169,0.0177,0.0176,0.0175,0,0.0788,0.0837,0.0945,0.1005,0.1039,0.1135,0.1212,0.1256,0.1327,0.1393,0.1445,0.1361,0.1332,0.102,0.0714,0.0428,0.0279,0.0263,0.0232,0.0111,0.0004,-0.0046,-0.009,0.0255,0.0255,0.0255,0.0255,0,0.0841,0.0876,0.0946,0.1074,0.1162,0.1285,0.1392,0.1476,0.1548,0.1624,0.1702,0.1687,0.1409,0.115,0.0749,0.0532,0.019,0.0255,0.0112,0.0048,0.0005,-0.0075,0.0282,0.0256,0.0256,0.0256,0.0256,0.0256,0.0875,0.0936,0.1029,0.1151,0.1264,0.1416,0.1526,0.1652,0.18,0.1945,0.1907,0.1937,0.1569,0.1038,0.0714,0.0194,0.0185,0.0051,-0.0027,-0.0067,-0.012,0.0242,0.0182,0.0181,0.0181,0.0181,0.018,0,0.0918,0.0992,0.1102,0.1252,0.1379,0.1438,0.1639,0.1764,0.1954,0.2104,0.2183,0.2054,0.1577,0.1072,0.0374,-0.0004,-0.0141,-0.0207,-0.0266,-0.0301,0.0011,0.002,-0.0056,-0.0056,-0.0056,-0.0056,-0.0056,-0.0055,0.0943,0.1047,0.1109,0.1319,0.1429,0.162,0.1743,0.1941,0.21,0.2317,0.2388,0.2414,0.2073,0.0795,-0.0049,-0.0262,-0.0499,-0.0554,-0.0686,-0.0472,-0.0453,-0.0436,-0.0445,-0.0617,-0.0618,-0.0936,-0.0939,-0.0942]}],[{"header":{"parameterUnit":"m.s-1","parameterCategory":2,"la1":30.2991,"la2":30.254,"lo1":-89.0895,"lo2":-89.0444,"dy":0.0017,"dx":0.0017,"nx":28,"ny":28,"refTime":"2024-03-08T09:00:00:Z","depth":"2","parameterNumber":2,"parameterNumberName":"U-component_of_CURRENTS"},"data":[0,0,0,0,0,0,0,0,0,0,0,0,0,0,0,0,0,0,0,0,0,0,0,0,0,0,0,0,0,0,0,0,0,0,0,0,0,0,0,0,0,0,0,0,0,0,0,0,0,0,0,0,0,0,0,0,0,0,0.2914,0.2915,0,0.2936,0.2936,0.2936,0.293,0.293,0.293,0.293,0.2922,0.2922,0.2922,0,0,0,0,0,0,0,0,0,0,0,0,0,0.2883,0.2884,0.2914,0.2915,0.2915,0.2936,0.2936,0.2936,0.293,0.293,0.293,0.293,0.2922,0.2922,0.2922,0,0,0,0,0,0,0,0,0,0,0,0,0,0.2898,0.2884,0.2914,0.2917,0.2917,0.2936,0.2936,0.2936,0.2931,0.293,0.293,0.293,0.2922,0.2922,0.2922,0.2929,0,0,0.2922,0.2922,0,0,0,0,0,0,0,0,0.2897,0.2898,0.2916,0.2917,0.2917,0.2932,0.2923,0.2933,0.2931,0.2923,0.293,0.2929,0.2925,0.2925,0.2926,0.2928,0.2928,0.2922,0.2922,0.2922,0.2922,0,0,0,0,0,0,0,0.2896,0.2898,0.292,0.2916,0.2917,0.2922,0.2923,0.2925,0.2923,0.2924,0.2924,0.293,0.2925,0.2926,0.2926,0.2928,0.2922,0.2922,0.2922,0.2922,0.2988,0.299,0,0,0,0,0,0,0.2898,0.2897,0.292,0.2921,0.2909,0.2923,0.2924,0.2926,0.2924,0.2924,0.293,0.293,0.2927,0.2926,0.2926,0.2971,0.2922,0.2922,0.2922,0.2986,0.2989,0.299,0,0,0,0,0,0,0.2897,0.2899,0.2919,0.2912,0.2915,0.2924,0.2926,0.2926,0.2941,0.293,0.2929,0.2945,0.2926,0.2926,0.2944,0.2969,0.2922,0.2922,0.2984,0.2987,0.2989,0.3036,0,0,0,0,0,0,0.2896,0.2899,0.2907,0.2912,0.2915,0.2937,0.2926,0.2927,0.2945,0.2945,0.2942,0.294,0.2926,0.2944,0.2944,0.2968,0.2922,0.2982,0.2986,0.2989,0.3033,0.304,0.3047,0,0,0,0,0,0.2894,0.2901,0.2907,0.291,0.2924,0.2938,0.294,0.2944,0.2947,0.2955,0.296,0.2941,0.2965,0.2945,0.2945,0.2969,0.2981,0.2985,0.2988,0.3029,0.3039,0.3047,0,0,0,0,0,0,0.2889,0.2902,0.2908,0.2918,0.2933,0.2938,0.2948,0.2955,0.2966,0.297,0.2958,0.2957,0.2988,0.2975,0.2954,0.3001,0.2972,0.2976,0.3004,0.3012,0.3019,0.3041,0.2922,0,0,0,0,0,0.2894,0.2904,0.2917,0.2928,0.2936,0.2948,0.2957,0.2963,0.2972,0.2977,0.2978,0.2986,0.3003,0.3003,0.3014,0.3031,0.3037,0.3051,0.3058,0.3064,0.3084,0.3113,0.3124,0.3003,0.3003,0.3003,0,0,0.2895,0.2905,0.2911,0.2929,0.2939,0.296,0.2952,0.2972,0.2998,0.2975,0.3008,0.3013,0.3017,0.3043,0.3055,0.3033,0.3102,0.3069,0.3074,0.3091,0.3118,0.313,0.314,0.3006,0.3005,0.3005,0,0,0.29,0.2912,0.2923,0.294,0.2965,0.2976,0.2987,0.3005,0.3021,0.3049,0.3052,0.3078,0.3084,0.3101,0.3108,0.3163,0.3146,0.3163,0.3205,0.3233,0.3243,0.3252,0.3273,0.3283,0.3157,0.3157,0.3157,0,0.2905,0.2915,0.2929,0.2948,0.2965,0.2987,0.3006,0.3034,0.3058,0.3077,0.3065,0.3115,0.3117,0.3165,0.3189,0.318,0.3188,0.3167,0.3241,0.325,0.3258,0.3278,0.3289,0.3159,0.3159,0.3159,0.3159,0,0.2916,0.2933,0.2942,0.2974,0.2998,0.3017,0.3056,0.3088,0.3107,0.3128,0.3179,0.319,0.3217,0.3226,0.3224,0.3291,0.3276,0.3252,0.3216,0.3273,0.329,0.3301,0.3163,0.3162,0.3162,0.3161,0,0,0.2899,0.2939,0.2944,0.2957,0.3011,0.3024,0.3087,0.3133,0.3167,0.3204,0.3245,0.3295,0.3304,0.3316,0.3322,0.335,0.3418,0.3331,0.3331,0.3346,0.3478,0.3425,0.3431,0.34,0.3402,0.3404,0.3465,0,0.2901,0.293,0.2956,0.299,0.3007,0.3055,0.3104,0.3158,0.3198,0.3247,0.3291,0.3331,0.3337,0.335,0.339,0.342,0.3448,0.3404,0.3426,0.3427,0.3368,0.3442,0.3178,0.3206,0.3475,0.3476,0.3478,0,0.2896,0.2918,0.2945,0.2989,0.3001,0.3032,0.3104,0.3154,0.3244,0.3272,0.3335,0.3367,0.3453,0.3426,0.3521,0.3492,0.35,0.351,0.3511,0.3456,0.3394,0.3194,0.3215,0.3495,0.3493,0.3492,0.3491,0,0.2858,0.2904,0.2919,0.2938,0.3,0.3028,0.3073,0.316,0.3219,0.3301,0.3355,0.3425,0.3494,0.3521,0.3579,0.3549,0.3662,0.361,0.3569,0.3564,0.3343,0.3316,0.3664,0.3663,0.3663,0.3663,0.3663,0,0.2836,0.2848,0.2901,0.291,0.2942,0.3001,0.3058,0.3112,0.3218,0.3283,0.3374,0.3443,0.3526,0.3605,0.3606,0.3644,0.3688,0.3605,0.3588,0.3352,0.3326,0.3575,0.3564,0.3665,0.3665,0.3664,0.3664,0,0.2784,0.2819,0.2839,0.2899,0.2922,0.2948,0.306,0.3096,0.3217,0.3314,0.3353,0.3504,0.3595,0.3665,0.3722,0.3698,0.3708,0.3697,0.3423,0.3373,0.3578,0.3569,0.3651,0.365,0.3649,0.3649,0.3648,0,0.2756,0.2761,0.282,0.283,0.2855,0.2916,0.2952,0.3074,0.3129,0.3332,0.3367,0.3528,0.3589,0.3693,0.3665,0.3663,0.3715,0.3409,0.3307,0.3609,0.3583,0.3575,0.3568,0.3026,0.3021,0.3016,0.3012,0,0.2702,0.2724,0.2739,0.277,0.2798,0.2836,0.2907,0.2956,0.3098,0.3204,0.3319,0.3395,0.3523,0.3417,0.346,0.341,0.3387,0.3316,0.3705,0.308,0.3027,0.2999,0.3011,0.2971,0.2975,0.2978,0.298,0.2982,0.2656,0.2651,0.2673,0.2686,0.2716,0.2724,0.272,0.281,0.289,0.2996,0.3151,0.3175,0.3227,0.3155,0.3054,0.2982,0.3208,0.3048,0.3058,0.3075,0.3002,0.295,0.2866,0.287,0.2873,0.2875,0.2878,0,0.2578,0.2577,0.2586,0.2582,0.2555,0.2619,0.265,0.262,0.2646,0.2776,0.2857,0.2673,0.2636,0.2669,0.2504,0.251,0.2443,0.2395,0.228,0.2326,0.2366,0.2251,0.192,0.1916,0.1913,0.1909,0,0,0.2537,0.2499,0.2491,0.2413,0.241,0.2341,0.2325,0.231,0.2354,0.2344,0.2347,0.2558,0.263,0.2253,0.2209,0.2028,0.2149,0.1947,0.273,0.2644,0.2679,0.2775,0.2657,0,0,0,0,0]},{"header":{"parameterUnit":"m.s-1","parameterCategory":2,"la1":30.2991,"la2":30.254,"lo1":-89.0895,"lo2":-89.0444,"dy":0.0017,"dx":0.0017,"nx":28,"ny":28,"refTime":"2024-03-08T09:00:00:Z","depth":"2","parameterNumber":3,"parameterNumberName":"V-component_of_CURRENTS"},"data":[0,0,0,0,0,0,0,0,0,0,0,0,0,0,0,0,0,0,0,0,0,0,0,0,0,0,0,0,0,0,0,0,0,0,0,0,0,0,0,0,0,0,0,0,0,0,0,0,0,0,0,0,0,0,0,0,0,0,0.0287,0.0287,0,0.0249,0.0248,0.0248,0.0216,0.0216,0.0216,0.0215,0.0152,0.015,0.0149,0,0,0,0,0,0,0,0,0,0,0,0,0,0.0275,0.0276,0.0287,0.0287,0.0287,0.0249,0.0248,0.0247,0.0216,0.0216,0.0216,0.0215,0.0152,0.015,0.0149,0,0,0,0,0,0,0,0,0,0,0,0,0,0.0262,0.0276,0.0287,0.0268,0.0266,0.0249,0.0248,0.0247,0.0216,0.0216,0.0215,0.0215,0.0153,0.0151,0.0148,0.0139,0,0,0.0141,0.014,0,0,0,0,0,0,0,0,0.0262,0.0262,0.0271,0.0269,0.0267,0.0238,0.0221,0.021,0.0216,0.0233,0.0215,0.0215,0.018,0.0175,0.0166,0.0136,0.0134,0.0141,0.014,0.0139,0.0138,0,0,0,0,0,0,0,0.0264,0.0263,0.027,0.0271,0.0268,0.0241,0.0239,0.0218,0.0207,0.0232,0.023,0.0228,0.0178,0.0169,0.0165,0.0133,0.0141,0.0139,0.0138,0.0137,0.01,0.01,0,0,0,0,0,0,0.0275,0.0264,0.0272,0.0269,0.0266,0.0242,0.0239,0.0246,0.0207,0.0202,0.0228,0.0227,0.0173,0.0167,0.0162,0.0168,0.0139,0.0137,0.0135,0.01,0.01,0.01,0,0,0,0,0,0,0.0275,0.0277,0.0273,0.0267,0.0264,0.0243,0.025,0.0246,0.0241,0.0205,0.0199,0.0229,0.0172,0.0165,0.0155,0.0165,0.0136,0.0133,0.0099,0.01,0.01,0.0168,0,0,0,0,0,0,0.0275,0.0277,0.0285,0.0268,0.0265,0.0275,0.0251,0.0245,0.0241,0.0239,0.0204,0.0197,0.0172,0.0159,0.0153,0.0161,0.0132,0.0099,0.0099,0.01,0.0165,0.017,0.0175,0,0,0,0,0,0.0275,0.0293,0.0286,0.0287,0.0278,0.0276,0.0272,0.0254,0.0242,0.0247,0.0224,0.0199,0.0159,0.0158,0.015,0.0158,0.0098,0.0099,0.01,0.0163,0.0169,0.0175,0,0,0,0,0,0,0.0289,0.0291,0.0283,0.0299,0.0292,0.0271,0.0273,0.026,0.0246,0.0241,0.0207,0.0199,0.0192,0.0166,0.0166,0.0149,0.0123,0.0123,0.0173,0.0179,0.0184,0.0206,0.013,0,0,0,0,0,0.0297,0.0311,0.0304,0.0315,0.0314,0.0294,0.029,0.0279,0.0264,0.0257,0.0234,0.0208,0.0189,0.0179,0.0156,0.015,0.0122,0.0149,0.0154,0.0159,0.0171,0.0133,0.0136,0.0103,0.0103,0.0103,0,0,0.0305,0.0307,0.0314,0.0319,0.0309,0.032,0.0291,0.0291,0.0302,0.0252,0.0258,0.0226,0.0191,0.0184,0.0178,0.0166,0.0153,0.016,0.0164,0.0174,0.0134,0.0138,0.0141,0.0104,0.0104,0.0104,0,0,0.033,0.033,0.0352,0.0353,0.0349,0.0339,0.0344,0.033,0.0326,0.0325,0.0292,0.0271,0.0242,0.0222,0.0206,0.0227,0.0181,0.0214,0.0259,0.0222,0.0224,0.0226,0.0197,0.0196,0.0217,0.0217,0.0217,0,0.0338,0.0369,0.0356,0.0376,0.0386,0.0354,0.0381,0.0372,0.0356,0.0359,0.0336,0.0294,0.0262,0.0256,0.0261,0.024,0.0212,0.0239,0.0229,0.0231,0.0231,0.0201,0.0198,0.0221,0.022,0.022,0.022,0,0.0383,0.0406,0.0418,0.0439,0.0444,0.0461,0.0451,0.0457,0.0442,0.0425,0.0415,0.0368,0.0345,0.0326,0.03,0.0292,0.0269,0.024,0.0217,0.0239,0.0205,0.0201,0.0225,0.0224,0.0223,0.0222,0,0,0.0408,0.0446,0.0451,0.0478,0.0483,0.0497,0.0518,0.053,0.0549,0.0511,0.0529,0.0478,0.0442,0.0423,0.0381,0.0346,0.0323,0.0302,0.0298,0.0279,0.0246,0.0225,0.0218,0.0289,0.0289,0.0289,0.0221,0,0.045,0.0513,0.0516,0.0571,0.0605,0.0594,0.0625,0.0625,0.0609,0.0614,0.0556,0.0545,0.0482,0.0471,0.0428,0.0354,0.0316,0.0345,0.0222,0.0219,0.0202,0.0215,0.0237,0.0177,0.0217,0.0216,0.0216,0,0.0497,0.0538,0.0606,0.0662,0.0676,0.0698,0.0741,0.0763,0.0752,0.0736,0.07,0.0649,0.0603,0.0542,0.0425,0.0445,0.0356,0.0288,0.0283,0.024,0.0191,0.016,0.0169,0.0209,0.021,0.021,0.0211,0,0.0538,0.0601,0.0663,0.0681,0.0734,0.0764,0.079,0.0798,0.0836,0.0807,0.0822,0.0736,0.0716,0.0591,0.0448,0.0436,0.0313,0.0275,0.0172,0.0169,0.0153,0.015,0.0189,0.0189,0.0189,0.0189,0.0189,0,0.0588,0.0637,0.0689,0.0725,0.0812,0.0819,0.0897,0.0904,0.0928,0.0983,0.0889,0.0909,0.0727,0.0636,0.0484,0.0324,0.0335,0.0187,0.0152,0.0177,0.0177,0.0175,0.0175,0.0187,0.0187,0.0188,0.0188,0,0.0623,0.0656,0.0735,0.0804,0.0835,0.0894,0.0984,0.1037,0.1043,0.1114,0.1114,0.1042,0.0922,0.0733,0.0533,0.0389,0.0221,0.0157,0.0203,0.0174,0.0093,0.0096,0.0042,0.004,0.0039,0.0038,0.0038,0,0.0648,0.0694,0.0796,0.0854,0.0887,0.0978,0.1051,0.1091,0.1153,0.1205,0.1249,0.1161,0.112,0.0816,0.0535,0.0266,0.0222,0.01,0.0076,0.0108,0.0078,0.0083,0.0088,0.008,0.0079,0.0079,0.0079,0,0.0696,0.0729,0.0795,0.0918,0.1001,0.1115,0.1215,0.1288,0.1352,0.1413,0.147,0.1444,0.1173,0.0907,0.053,0.0339,0.0142,0.0086,0.0106,0.0116,0.0138,0.0111,0.0116,0.0076,0.0077,0.0077,0.0077,0.0077,0.0727,0.0783,0.0871,0.0988,0.1094,0.1234,0.1335,0.1444,0.1571,0.1682,0.1638,0.1605,0.1298,0.0826,0.0487,0.0124,0.0151,0.0017,0.002,0.0023,0.0042,0.0061,-0.0011,-0.0012,-0.0012,-0.0012,-0.0012,0,0.0766,0.0834,0.0937,0.1078,0.1197,0.1256,0.1437,0.1542,0.1701,0.1796,0.1847,0.1542,0.1239,0.0871,0.0352,0.0047,0.0015,-0.0072,-0.0035,-0.0029,-0.0025,-0.0007,-0.0074,-0.0076,-0.0077,-0.0078,0,0,0.0788,0.0883,0.0939,0.1136,0.1242,0.1418,0.153,0.169,0.18,0.1899,0.1883,0.1825,0.1371,0.0978,0.0554,0.0248,0.0178,0.0173,0.026,0.0363,0.0371,0.0064,0.0103,0,0,0,0,0]}],[{"header":{"parameterUnit":"m.s-1","parameterCategory":2,"la1":30.2991,"la2":30.254,"lo1":-89.0895,"lo2":-89.0444,"dy":0.0017,"dx":0.0017,"nx":28,"ny":28,"refTime":"2024-03-08T09:00:00:Z","depth":"4","parameterNumber":2,"parameterNumberName":"U-component_of_CURRENTS"},"data":[0,0,0,0,0,0,0,0,0,0,0,0,0,0,0,0,0,0,0,0,0,0,0,0,0,0,0,0,0,0,0,0,0,0,0,0,0,0,0,0,0,0,0,0,0,0,0,0,0,0,0,0,0,0,0,0,0,0,0.1881,0.1882,0,0.195,0.1951,0.1951,0.201,0.201,0.2011,0.2012,0.2092,0.2093,0.2095,0,0,0,0,0,0,0,0,0,0,0,0,0,0.1801,0.1802,0.1881,0.1882,0.1883,0.195,0.1951,0.1951,0.2009,0.201,0.2011,0.2012,0.2091,0.2093,0.2095,0,0,0,0,0,0,0,0,0,0,0,0,0,0.1848,0.1803,0.1881,0.1921,0.1926,0.195,0.1951,0.1952,0.2009,0.2011,0.2012,0.2013,0.2091,0.2093,0.2095,0.2083,0,0,0.2101,0.2102,0,0,0,0,0,0,0,0,0.1845,0.185,0.1914,0.1919,0.1924,0.1974,0.1952,0.1997,0.2009,0.1976,0.2012,0.2013,0.2054,0.2059,0.2066,0.2087,0.209,0.2101,0.2103,0.2103,0.2104,0,0,0,0,0,0,0,0.1842,0.1848,0.1906,0.1915,0.1921,0.1937,0.1945,0.1961,0.2006,0.1979,0.1984,0.1994,0.2056,0.2064,0.2069,0.2091,0.2101,0.2103,0.2104,0.2105,0.2228,0.223,0,0,0,0,0,0,0.1836,0.1845,0.1904,0.1909,0.1889,0.1938,0.1946,0.1955,0.2006,0.2015,0.1993,0.1996,0.206,0.2066,0.2072,0.2166,0.2103,0.2105,0.2107,0.2226,0.2229,0.2231,0,0,0,0,0,0,0.1834,0.184,0.1901,0.188,0.1889,0.1938,0.1947,0.1956,0.2006,0.2016,0.2026,0.2039,0.2061,0.2069,0.2125,0.2166,0.2106,0.2108,0.2224,0.2227,0.223,0.2287,0,0,0,0,0,0,0.1831,0.1839,0.1864,0.1879,0.189,0.1939,0.1947,0.1956,0.2009,0.2015,0.2058,0.2065,0.2063,0.2123,0.2128,0.2167,0.211,0.2221,0.2225,0.2229,0.2283,0.2292,0.23,0,0,0,0,0,0.1828,0.1846,0.1865,0.1873,0.1916,0.194,0.1948,0.1984,0.201,0.2034,0.2072,0.2066,0.2151,0.2126,0.2131,0.2173,0.2219,0.2224,0.2229,0.2279,0.229,0.2299,0,0,0,0,0,0,0.1826,0.1854,0.1875,0.1904,0.1934,0.1952,0.1984,0.2008,0.2056,0.2077,0.2088,0.2096,0.2163,0.2161,0.2134,0.2221,0.2186,0.2191,0.2222,0.2233,0.2241,0.2252,0.2111,0,0,0,0,0,0.1836,0.1862,0.1887,0.1917,0.1935,0.1969,0.1994,0.2019,0.2052,0.2077,0.2108,0.2145,0.2178,0.2202,0.2228,0.227,0.2271,0.2303,0.2312,0.2319,0.2334,0.2366,0.2378,0.2246,0.2246,0.2246,0,0,0.1845,0.1866,0.1883,0.192,0.195,0.198,0.1988,0.2035,0.2075,0.2076,0.2154,0.2179,0.2199,0.2252,0.2281,0.226,0.2358,0.2325,0.233,0.2342,0.2372,0.2384,0.2396,0.2249,0.2249,0.2248,0,0,0.1859,0.1895,0.1919,0.1947,0.1997,0.2016,0.2039,0.2083,0.2123,0.2183,0.2204,0.2258,0.2303,0.2329,0.2344,0.2415,0.2404,0.2429,0.2478,0.2509,0.2519,0.2529,0.2544,0.2554,0.2429,0.2429,0.2429,0,0.1875,0.1901,0.1931,0.1961,0.1992,0.2037,0.207,0.2113,0.2175,0.2211,0.222,0.2317,0.2339,0.2402,0.2436,0.2435,0.2446,0.2433,0.2519,0.2528,0.2537,0.255,0.2561,0.2432,0.2432,0.2431,0.2431,0,0.1891,0.1932,0.1951,0.2003,0.2041,0.2078,0.2132,0.219,0.2243,0.2279,0.2369,0.2402,0.2458,0.2476,0.2482,0.2562,0.2547,0.2526,0.2488,0.2553,0.2563,0.2573,0.2437,0.2436,0.2435,0.2434,0,0,0.1873,0.1947,0.196,0.1991,0.2068,0.2093,0.2175,0.2244,0.2301,0.2374,0.2441,0.2519,0.2549,0.257,0.2588,0.2623,0.2697,0.2612,0.2612,0.262,0.2764,0.259,0.2584,0.2692,0.2694,0.2696,0.2744,0,0.1882,0.1934,0.1975,0.204,0.207,0.2142,0.2206,0.2283,0.2352,0.243,0.2494,0.2566,0.258,0.2618,0.2661,0.2697,0.2728,0.2686,0.2707,0.2708,0.2538,0.2591,0.2703,0.2751,0.2753,0.2755,0.2756,0,0.1876,0.1915,0.1974,0.2055,0.2077,0.2131,0.2239,0.2306,0.2423,0.2477,0.2565,0.2614,0.2713,0.2697,0.2796,0.2771,0.2784,0.2794,0.2795,0.262,0.2552,0.2675,0.2774,0.2773,0.2771,0.277,0.2769,0,0.1826,0.191,0.1958,0.1988,0.2088,0.2145,0.2213,0.2329,0.2402,0.2523,0.259,0.2683,0.2763,0.2797,0.2852,0.2833,0.2931,0.2893,0.2742,0.273,0.2847,0.2836,0.2946,0.2946,0.2946,0.2946,0.2945,0,0.1793,0.1837,0.1946,0.1972,0.2044,0.2129,0.2225,0.2304,0.2434,0.251,0.2625,0.2689,0.28,0.2869,0.2876,0.2846,0.2953,0.2762,0.2734,0.2869,0.2861,0.2853,0.2842,0.2947,0.2947,0.2947,0.2946,0,0.1724,0.1796,0.1858,0.1976,0.2023,0.2081,0.2239,0.2294,0.2439,0.2546,0.2596,0.2744,0.2816,0.2891,0.2951,0.2872,0.2853,0.281,0.2964,0.2942,0.2622,0.2614,0.263,0.2624,0.262,0.2616,0.2612,0,0.1687,0.1714,0.1851,0.1893,0.1956,0.2063,0.2125,0.228,0.2341,0.2546,0.2574,0.272,0.2789,0.2741,0.2821,0.2806,0.2774,0.274,0.2668,0.262,0.2592,0.2591,0.2589,0.2605,0.2603,0.2602,0.2601,0,0.1615,0.1684,0.1734,0.1826,0.1902,0.1973,0.2082,0.2118,0.2281,0.2442,0.2485,0.2518,0.2596,0.2622,0.2642,0.2623,0.2743,0.2688,0.2697,0.2629,0.259,0.2566,0.257,0.2584,0.2587,0.2588,0.2589,0,0.1569,0.1587,0.1668,0.1731,0.1819,0.1845,0.1921,0.1983,0.2069,0.2284,0.2288,0.2428,0.2565,0.2528,0.254,0.2516,0.2467,0.2367,0.2391,0.2411,0.2316,0.2232,0.2098,0,0,0,0,0,0.1509,0.1511,0.1562,0.1614,0.1692,0.1745,0.1865,0.1941,0.2105,0.2073,0.2177,0.2223,0.2249,0.2322,0.2252,0.2441,0.2479,0.2347,0.2377,0.2491,0.2511,0.2418,0,0,0,0,0,0,0.1466,0.1509,0.1518,0.15,0.1513,0.1581,0.1648,0.1759,0.1753,0.1928,0.1953,0.2084,0.2145,0.2266,0.2209,0.2229,0.2199,0.2438,0.2432,0.2481,0.2498,0.2514,0.2425,0,0,0,0,0]},{"header":{"parameterUnit":"m.s-1","parameterCategory":2,"la1":30.2991,"la2":30.254,"lo1":-89.0895,"lo2":-89.0444,"dy":0.0017,"dx":0.0017,"nx":28,"ny":28,"refTime":"2024-03-08T09:00:00:Z","depth":"4","parameterNumber":3,"parameterNumberName":"V-component_of_CURRENTS"},"data":[0,0,0,0,0,0,0,0,0,0,0,0,0,0,0,0,0,0,0,0,0,0,0,0,0,0,0,0,0,0,0,0,0,0,0,0,0,0,0,0,0,0,0,0,0,0,0,0,0,0,0,0,0,0,0,0,0,0,0.02,0.02,0,0.0176,0.0176,0.0176,0.0155,0.0154,0.0154,0.0154,0.0112,0.0112,0.0111,0,0,0,0,0,0,0,0,0,0,0,0,0,0.0188,0.0188,0.02,0.02,0.02,0.0176,0.0176,0.0175,0.0155,0.0154,0.0154,0.0154,0.0113,0.0112,0.011,0,0,0,0,0,0,0,0,0,0,0,0,0,0.018,0.0188,0.02,0.0188,0.0186,0.0176,0.0176,0.0175,0.0155,0.0154,0.0154,0.0154,0.0113,0.0112,0.011,0.0105,0,0,0.0106,0.0105,0,0,0,0,0,0,0,0,0.0181,0.0181,0.019,0.0189,0.0187,0.0169,0.0156,0.0151,0.0155,0.0165,0.0154,0.0154,0.0131,0.0128,0.0122,0.0103,0.0101,0.0106,0.0105,0.0104,0.0104,0,0,0,0,0,0,0,0.0181,0.0181,0.019,0.019,0.0188,0.0169,0.0168,0.0155,0.0148,0.0164,0.0163,0.0162,0.013,0.0124,0.0121,0.0101,0.0106,0.0104,0.0103,0.0103,0.0083,0.0083,0,0,0,0,0,0,0.0189,0.0182,0.019,0.0189,0.0185,0.017,0.0169,0.0174,0.0149,0.0145,0.0163,0.0162,0.0126,0.0123,0.012,0.0129,0.0104,0.0103,0.0102,0.0082,0.0083,0.0083,0,0,0,0,0,0,0.0189,0.019,0.0191,0.0185,0.0184,0.0171,0.0177,0.0174,0.0173,0.0148,0.0143,0.0166,0.0126,0.0122,0.0118,0.0126,0.0102,0.0101,0.0082,0.0082,0.0083,0.0137,0,0,0,0,0,0,0.0189,0.0191,0.0198,0.0186,0.0185,0.0196,0.0177,0.0174,0.0174,0.0172,0.0149,0.0145,0.0126,0.012,0.0116,0.0124,0.01,0.0081,0.0082,0.0083,0.0134,0.0139,0.0143,0,0,0,0,0,0.0189,0.0203,0.0199,0.02,0.0196,0.0196,0.0194,0.0182,0.0174,0.018,0.0165,0.0146,0.0121,0.012,0.0115,0.0122,0.0081,0.0082,0.0083,0.0132,0.0138,0.0143,0,0,0,0,0,0,0.0199,0.0202,0.0197,0.0211,0.0208,0.0193,0.0197,0.0189,0.0181,0.0178,0.0153,0.0148,0.0147,0.0128,0.0127,0.0117,0.0097,0.0097,0.0136,0.0141,0.0145,0.016,0.0098,0,0,0,0,0,0.0206,0.0218,0.0214,0.0224,0.0225,0.0212,0.021,0.0203,0.0194,0.019,0.0176,0.0158,0.0145,0.0139,0.0124,0.0122,0.0096,0.0122,0.0126,0.013,0.0139,0.0104,0.0105,0.0086,0.0086,0.0086,0,0,0.0213,0.0215,0.0222,0.0227,0.0222,0.0232,0.0211,0.0214,0.0224,0.0187,0.0196,0.0174,0.0148,0.0146,0.0143,0.0132,0.0122,0.0131,0.0135,0.0141,0.0105,0.0106,0.0108,0.0086,0.0086,0.0086,0,0,0.0232,0.0235,0.0252,0.0255,0.0255,0.0249,0.0254,0.0246,0.0245,0.0249,0.0224,0.0211,0.0194,0.0177,0.0166,0.0184,0.0145,0.0176,0.021,0.0176,0.0177,0.0178,0.0147,0.0145,0.0178,0.0178,0.0178,0,0.0239,0.0263,0.0255,0.0272,0.0282,0.0261,0.0283,0.0278,0.0271,0.0273,0.026,0.0233,0.0209,0.0205,0.021,0.0195,0.0169,0.0194,0.0182,0.0182,0.0182,0.015,0.0147,0.0181,0.018,0.018,0.018,0,0.0271,0.0292,0.0302,0.032,0.0327,0.0342,0.0338,0.0346,0.0339,0.0327,0.0323,0.0291,0.0275,0.0261,0.0242,0.0233,0.0212,0.0191,0.0171,0.0187,0.0152,0.0148,0.0184,0.0184,0.0183,0.0182,0,0,0.0286,0.0321,0.0325,0.0349,0.0358,0.037,0.039,0.0401,0.0417,0.0394,0.0409,0.0374,0.0348,0.0334,0.0303,0.0272,0.0246,0.0237,0.0234,0.021,0.0172,0.0153,0.0146,0.022,0.022,0.022,0.0147,0,0.0316,0.0366,0.0373,0.0419,0.0446,0.0444,0.0472,0.0475,0.0465,0.0471,0.0429,0.0424,0.0378,0.0374,0.0336,0.0273,0.0238,0.0268,0.0156,0.0153,0.0137,0.0141,0.0218,0.0144,0.0143,0.0142,0.0142,0,0.0348,0.0381,0.0437,0.0488,0.05,0.0523,0.0561,0.0582,0.0575,0.0566,0.054,0.0503,0.0465,0.0422,0.0318,0.0338,0.0263,0.0206,0.0201,0.0164,0.0126,0.0122,0.0133,0.0134,0.0135,0.0135,0.0136,0,0.037,0.0426,0.0477,0.0493,0.0543,0.0573,0.06,0.0609,0.064,0.0623,0.0634,0.0566,0.055,0.0446,0.0325,0.0322,0.0202,0.018,0.009,0.0088,0.0103,0.0102,0.0103,0.0103,0.0103,0.0103,0.0103,0,0.0401,0.0443,0.0496,0.0525,0.0599,0.0614,0.068,0.0691,0.0715,0.0753,0.0688,0.0694,0.0555,0.0471,0.0347,0.0206,0.0213,0.01,0.0069,0.0127,0.013,0.0099,0.01,0.01,0.0101,0.0101,0.0102,0,0.0416,0.045,0.0516,0.0583,0.0613,0.0665,0.0748,0.079,0.0803,0.0852,0.0854,0.0791,0.068,0.0528,0.0358,0.0247,0.0105,0.0049,0.0127,0.0101,0.0009,0.0013,-0.0047,-0.0048,-0.005,-0.005,-0.0051,0,0.0428,0.0464,0.056,0.061,0.0644,0.0726,0.0789,0.0832,0.0876,0.091,0.0936,0.0855,0.0789,0.0543,0.0366,0.0124,0.0084,0.0003,0.0002,0.0018,-0.0006,0.0,0.0006,-0.0053,-0.0053,-0.0053,-0.0054,0,0.045,0.0485,0.054,0.0646,0.0721,0.0816,0.0901,0.0942,0.0997,0.1012,0.1004,0.0884,0.0759,0.0554,0.036,0.0185,0.0052,-0.0009,-0.0008,-0.0009,0.001,-0.0011,-0.0004,-0.0057,-0.0057,-0.0056,-0.0056,0,0.0465,0.0506,0.0581,0.0675,0.0776,0.0875,0.0922,0.0983,0.1034,0.1065,0.1057,0.0924,0.0847,0.0585,0.0407,0.023,0.0184,0.0116,0.011,0.0112,0.017,0.0219,0.0193,0,0,0,0,0,0.0475,0.0524,0.0607,0.0712,0.0812,0.0879,0.0987,0.1025,0.1079,0.1083,0.1074,0.0957,0.0712,0.0606,0.0428,0.0369,0.0138,0.0151,0.0053,-0.0078,-0.0073,-0.0035,0,0,0,0,0,0,0.0482,0.0554,0.06,0.0727,0.0803,0.0922,0.0996,0.1036,0.1039,0.1063,0.0938,0.0894,0.0655,0.0813,0.0419,0.0367,0.0275,0.0043,0.0039,-0.008,-0.0076,-0.0073,-0.0031,0,0,0,0,0]}]]